Timestamp,Temp,Chill,HIndex,Humid,Dewpt,Wind,HiWind,WindDir,Rain,RainRate,Barom,Solar,ET,UV,InsideTemp,InsideHumid
2015-03-13 00:00:00,46.5,46.5,46.5,68,36.517208313074,3,7,202.5,0.00393700787,0,29.893,0,0.001,0,71.2,30
2015-03-13 00:05:00,45.9,45.9,45.9,70,36.676666850316,2,8,270,0,0,29.894,0,0,0,71.1,30
2015-03-13 00:10:00,45.3,45.3,45.3,73,37.1637296502392,2,6,292.5,0,0,29.893,0,0,0,71.1,30
2015-03-13 00:15:00,44.8,44.8,44.8,75,37.3674410589715,1,7,270,0.00393700787,0.01574803148,29.893,0,0,0,71.1,30
2015-03-13 00:20:00,44.4,44.4,44.4,77,37.6491185791044,0,1,0,0.00393700787,0.03149606296,29.895,0,0,0,71.1,31
2015-03-13 00:25:00,44.3,44.3,44.3,79,38.2050229858636,0,2,0,0,0.03149606296,29.904,0,0,0,70.9,31
2015-03-13 00:30:00,44.1,44.1,44.1,79,38.0105222872386,1,4,270,0,0.02362204722,29.905,0,0,0,70.9,31
2015-03-13 00:35:00,43.8,43.8,43.8,80,38.0390255840735,1,5,270,0.00393700787,0.02362204722,29.903,0,0,0,70.9,31
2015-03-13 00:40:00,43.9,43.9,43.9,80,38.1364218135333,1,4,270,0,0.02362204722,29.906,0,0,0,70.7,32
2015-03-13 00:45:00,44,44,44,80,38.2338174624538,1,5,247.5,0,0.01574803148,29.907,0,0,0,70.7,32
2015-03-13 00:50:00,44.1,44.1,44.1,79,38.0105222872386,2,7,180,0,0,29.904,0,0,0,70.7,32
2015-03-13 00:55:00,44.5,44.5,44.5,79,38.3995212369513,2,7,157.5,0,0,29.903,0,0,0,70.7,32
2015-03-13 01:00:00,44.7,44.7,44.7,78,38.2688513926382,3,7,157.5,0,0,29.902,0,0.001,0,70.6,32
2015-03-13 01:05:00,44.8,44.8,44.8,77,38.03694014579,3,10,157.5,0,0,29.9,0,0,0,70.6,32
2015-03-13 01:10:00,44.9,44.9,44.9,77,38.1338938490572,1,5,157.5,0,0,29.901,0,0,0,70.6,32
2015-03-13 01:15:00,44.9,44.9,44.9,76,37.8009395320169,3,7,157.5,0,0,29.9,0,0,0,70.6,32
2015-03-13 01:20:00,45,45,45,76,37.8977438382742,2,7,157.5,0,0,29.902,0,0,0,70.6,32
2015-03-13 01:25:00,45,45,45,76,37.8977438382742,1,5,180,0,0,29.9,0,0,0,70.4,32
2015-03-13 01:30:00,45,45,45,76,37.8977438382742,2,7,157.5,0,0,29.904,0,0,0,70.4,32
2015-03-13 01:35:00,44.9,44.9,44.9,77,38.1338938490572,1,5,157.5,0,0,29.907,0,0,0,70.4,33
2015-03-13 01:40:00,44.8,44.8,44.8,77,38.03694014579,2,6,135,0,0,29.909,0,0,0,70.4,33
2015-03-13 01:45:00,44.7,44.7,44.7,78,38.2688513926382,1,4,135,0,0,29.908,0,0,0,70.4,33
2015-03-13 01:50:00,44.5,44.5,44.5,78,38.0746465544799,3,7,135,0,0,29.907,0,0,0,70.2,33
2015-03-13 01:55:00,44.3,44.3,44.3,79,38.2050229858636,1,8,202.5,0.00393700787,0,29.905,0,0,0,70.2,33
2015-03-13 02:00:00,44.2,44.2,44.2,79,38.1077729424962,1,5,135,0,0,29.904,0,0.001,0,70.2,33
2015-03-13 02:05:00,44.1,44.1,44.1,79,38.0105222872386,1,5,135,0,0,29.901,0,0,0,70.2,33
2015-03-13 02:10:00,44,44,44,79,37.913271020085,1,4,157.5,0,0,29.901,0,0,0,70.2,33
2015-03-13 02:15:00,43.8,43.8,43.8,80,38.0390255840735,1,4,135,0,0,29.904,0,0,0,70.2,33
2015-03-13 02:20:00,43.7,43.7,43.7,81,38.2582316705738,1,6,112.5,0,0,29.905,0,0,0,70.2,33
2015-03-13 02:25:00,43.8,43.8,43.8,81,38.3557707153205,0,4,0,0.00393700787,0,29.908,0,0,0,70.2,33
2015-03-13 02:30:00,43.7,43.7,43.7,82,38.5714037618845,0,1,0,0,0,29.913,0,0,0,70.2,33
2015-03-13 02:35:00,43.6,43.6,43.6,82,38.4737234030116,0,2,0,0.00393700787,0.01574803148,29.914,0,0,0,70.1,33
2015-03-13 02:40:00,43.3,43.3,43.3,83,38.4899419175118,1,6,112.5,0,0.01574803148,29.914,0,0,0,70.1,34
2015-03-13 02:45:00,43.1,43.1,43.1,83,38.2942980926697,2,7,112.5,0.00393700787,0.03149606296,29.915,0,0,0,70.1,34
2015-03-13 02:50:00,42.9,42.9,42.9,84,38.4040930566695,3,6,90,0,0.03149606296,29.918,0,0,0,70.1,34
2015-03-13 02:55:00,42.9,42.9,42.9,85,38.706341687891,1,5,90,0.00393700787,0.03149606296,29.917,0,0,0,70.1,34
2015-03-13 03:00:00,42.7,42.7,42.7,85,38.5101457532092,3,6,90,0.00393700787,0.04330708657,29.918,0,0.001,0,70.1,34
2015-03-13 03:05:00,42.6,42.6,42.6,86,38.7107691379269,1,5,90,0.00393700787,0.04330708657,29.923,0,0,0,70.1,34
2015-03-13 03:10:00,42.4,42.4,42.4,86,38.5143006895971,2,5,90,0,0.03149606296,29.924,0,0,0,70.1,34
2015-03-13 03:15:00,42.4,42.4,42.4,86,38.5143006895971,0,2,0,0.00393700787,0.03149606296,29.921,0,0,0,70.1,34
2015-03-13 03:20:00,42.3,42.3,42.3,87,38.7113374701157,0,4,0,0,0.02755905509,29.927,0,0,0,70.1,34
2015-03-13 03:25:00,42.2,42.2,42.2,87,38.6129686384471,0,3,0,0.00393700787,0.02755905509,29.928,0,0,0,70.1,34
2015-03-13 03:30:00,42.2,42.2,42.2,87,38.6129686384471,0,2,0,0.00393700787,0.0393700787,29.929,0,0,0,69.9,34
2015-03-13 03:35:00,42.2,42.2,42.2,88,38.9051282065202,0,4,0,0,0.0393700787,29.926,0,0,0,69.9,34
2015-03-13 03:40:00,42.1,42.1,42.1,88,38.8066266816839,1,3,90,0.00393700787,0.0393700787,29.927,0,0,0,69.9,34
2015-03-13 03:45:00,42.1,42.1,42.1,88,38.8066266816839,2,6,67.5,0.00393700787,0.04724409444,29.928,0,0,0,69.9,34
2015-03-13 03:50:00,42.1,42.1,42.1,88,38.8066266816839,1,5,45,0.00393700787,0.04724409444,29.929,0,0,0,69.9,34
2015-03-13 03:55:00,42,42,42,88,38.7081248185915,1,5,45,0.00393700787,0.04330708657,29.93,0,0,0,69.9,35
2015-03-13 04:00:00,42,42,42,89,38.9971074667718,2,5,22.5,0,0.03543307083,29.93,0,0,0,69.7,35
2015-03-13 04:05:00,41.9,41.9,41.9,89,38.898474231139,2,6,0,0.00393700787,0.03543307083,29.936,0,0,0,69.7,35
2015-03-13 04:10:00,41.8,41.8,41.8,89,38.7998406865307,2,6,0,0.00393700787,0.04724409444,29.939,0,0,0,69.7,35
2015-03-13 04:15:00,41.7,41.7,41.7,89,38.7012068329457,3,7,45,0.00393700787,0.04724409444,29.941,0,0,0,69.6,35
2015-03-13 04:20:00,41.6,41.6,41.6,89,38.6025726703824,3,7,22.5,0,0.02362204722,29.94,0,0,0,69.6,35
2015-03-13 04:25:00,41.5,41.5,41.5,89,38.5039381988393,3,8,45,0.00393700787,0.0393700787,29.941,0,0,0,69.6,35
2015-03-13 04:30:00,41.5,41.5,41.5,90,38.7894212476721,2,7,45,0.00393700787,0.0393700787,29.942,0,0,0,69.4,35
2015-03-13 04:35:00,41.4,38.9358610965025,41.4,90,38.6906567850651,4,8,0,0.00393700787,0.03543307083,29.946,0,0,0,69.4,35
2015-03-13 04:40:00,41.4,38.9358610965025,41.4,90,38.6906567850651,4,15,45,0,0.03149606296,29.95,0,0,0,69.2,35
2015-03-13 04:45:00,40.5,34.2622610265854,40.5,89,37.5175764892034,10,15,337.5,0,0.02362204722,29.953,0,0,0,69,35
2015-03-13 04:50:00,39.8,34.8968524143104,39.8,89,36.8271049073,7,11,337.5,0.00393700787,0.02362204722,29.959,0,0,0,68.9,35
2015-03-13 04:55:00,39.4,35.767669568571,39.4,89,36.4325429195435,5,10,22.5,0.00393700787,0.02755905509,29.96,0,0,0,68.5,35
2015-03-13 05:00:00,39.1,34.6863644462518,39.1,89,36.1366181841086,6,12,337.5,0,0.02755905509,29.961,0,0,0,68.5,35
2015-03-13 05:05:00,38.9,34.4481784527481,38.9,90,36.2214542465864,6,12,337.5,0,0.01968503935,29.964,0,0,0,68.4,35
2015-03-13 05:10:00,38.6,34.0908994624924,38.6,89,35.6434041113769,6,13,315,0.00393700787,0.01968503935,29.968,0,0,0,68.2,35
2015-03-13 05:15:00,38.3,34.4756548706957,38.3,89,35.34747195947,5,15,337.5,0.00393700787,0.03149606296,29.97,0,0,0,67.7,35
2015-03-13 05:20:00,38,32.727584069874,38,89,35.0515370263141,7,14,315,0,0.03149606296,29.969,0,0,0,67.4,35
2015-03-13 05:25:00,37.9,33.2572484852293,37.9,90,35.2337242430702,6,13,315,0.00393700787,0.03149606296,29.972,0,0,0,67.2,35
2015-03-13 05:30:00,37.7,33.0190624917256,37.7,90,35.0361748830052,6,12,337.5,0,0.03149606296,29.973,0,0,0,66.7,35
2015-03-13 05:35:00,37.3,31.30009774568,37.3,89,34.3610113660955,8,14,337.5,0.00393700787,0.03149606296,29.971,0,0,0,66.4,35
2015-03-13 05:40:00,37.1,31.056547162207,37.1,90,34.443520083915,8,14,337.5,0.00393700787,0.02755905509,29.976,0,0,0,65.9,35
2015-03-13 05:45:00,37,32.1854115144625,37,90,34.3447433042153,6,12,337.5,0,0.02755905509,29.985,0,0,0,65.8,35
2015-03-13 05:50:00,37,32.9487284095703,37,90,34.3447433042153,5,8,292.5,0.00393700787,0.03543307083,29.989,0,0,0,65.9,35
2015-03-13 05:55:00,36.9,31.4019200816073,36.9,90,34.2459662445549,7,13,337.5,0.00393700787,0.03543307083,29.985,0,0,0,65.9,35
2015-03-13 06:00:00,36.7,30.5694459952611,36.7,90,34.0484112853472,8,18,337.5,0,0.02755905509,29.985,0,0,0,65.9,35
2015-03-13 06:05:00,36.7,31.1608902655588,36.7,90,34.0484112853472,7,14,0,0.00393700787,0.03149606296,29.988,0,0,0,65.8,35
2015-03-13 06:10:00,36.7,31.1608902655588,36.7,90,34.0484112853472,7,19,315,0,0.03149606296,29.982,0,0,0,65.6,35
2015-03-13 06:15:00,36.6,30.4476707035246,36.6,90,33.9496333857975,8,16,315,0,0.01968503935,29.987,0,0,0,65.4,35
2015-03-13 06:20:00,36.5,30.3258954117881,36.5,90,33.8508552062824,8,16,337.5,0,0,29.989,0,0,0,65.3,35
2015-03-13 06:25:00,36.6,33.3910868101565,36.6,90,33.9496333857975,4,10,315,0,0,29.995,0,0,0,65.3,35
2015-03-13 06:30:00,36.6,32.4789048830702,36.6,90,33.9496333857975,5,12,292.5,0.00393700787,0,29.997,0,0,0,65.3,35
2015-03-13 06:35:00,36.6,32.4789048830702,36.6,90,33.9496333857975,5,11,0,0,0,29.998,0,0,0,65.1,35
2015-03-13 06:40:00,36.6,31.709039527455,36.6,90,33.9496333857975,6,12,337.5,0,0,30,0,0,0,65.1,35
2015-03-13 06:45:00,36.6,31.0403753575346,36.6,90,33.9496333857975,7,15,0,0,0,30.004,0,0,0,64.9,35
2015-03-13 06:50:00,36.6,31.709039527455,36.6,90,33.9496333857975,6,11,337.5,0.00393700787,0,30.007,0,0,0,64.9,35
2015-03-13 06:55:00,36.7,33.506602941122,36.7,90,34.0484112853472,4,11,315,0,0,30.007,0,0,0,64.8,35
2015-03-13 07:00:00,36.7,31.8281325242068,36.7,90,34.0484112853472,6,10,315,0,0,30.007,0,0,0,64.8,35
2015-03-13 07:05:00,36.6,32.4789048830702,36.6,90,33.9496333857975,5,12,315,0,0,30.008,1,0,0,64.8,35
2015-03-13 07:10:00,36.7,31.8281325242068,36.7,90,34.0484112853472,6,10,315,0,0,30.01,5,0,0,64.6,35
2015-03-13 07:15:00,36.6,31.0403753575346,36.6,90,33.9496333857975,7,14,0,0.00393700787,0,30.015,7,0,0,64.3,35
2015-03-13 07:20:00,36.5,30.3258954117881,36.5,90,33.8508552062824,8,14,22.5,0,0,30.028,8,0,0,63.8,35
2015-03-13 07:25:00,36.4,30.7993455414861,36.4,90,33.7520767468006,7,13,0,0,0,30.019,10,0,0,63.5,35
2015-03-13 07:30:00,36.5,32.3614490014452,36.5,90,33.8508552062824,5,13,315,0,0,30.022,11,0,0,63.3,36
2015-03-13 07:35:00,36.4,31.4708535339512,36.4,90,33.7520767468006,6,13,0,0,0,30.022,11,0,0,63.3,36
2015-03-13 07:40:00,36.4,31.4708535339512,36.4,90,33.7520767468006,6,11,315,0,0,30.026,9,0,0,63.5,36
2015-03-13 07:45:00,36.4,31.4708535339512,36.4,90,33.7520767468006,6,13,315,0,0,30.03,7,0,0,63.5,36
2015-03-13 07:50:00,36.5,31.5899465307031,36.5,90,33.8508552062824,6,11,337.5,0,0,30.029,9,0,0,63.5,36
2015-03-13 07:55:00,36.4,31.4708535339512,36.4,90,33.7520767468006,6,12,337.5,0,0,30.032,9,0,0,63.5,36
2015-03-13 08:00:00,36.4,30.2041201200517,36.4,90,33.7520767468006,8,15,337.5,0,0,30.034,10,0,0,63.2,37
2015-03-13 08:05:00,36.4,30.2041201200517,36.4,90,33.7520767468006,8,14,0,0,0,30.03,12,0,0,63,37
2015-03-13 08:10:00,36.5,30.9198604495103,36.5,90,33.8508552062824,7,13,0,0,0,30.029,14,0,0,63,37
2015-03-13 08:15:00,36.6,31.0403753575346,36.6,90,33.9496333857975,7,12,337.5,0,0,30.028,17,0,0,62.9,37
2015-03-13 08:20:00,36.6,31.709039527455,36.6,90,33.9496333857975,6,12,0,0,0,30.031,18,0,0,63,37
2015-03-13 08:25:00,36.7,31.8281325242068,36.7,90,34.0484112853472,6,13,337.5,0,0,30.03,16,0,0,63,37
2015-03-13 08:30:00,36.8,33.6221190720875,36.8,90,34.1471889049326,4,9,45,0,0,30.031,17,0,0,63,37
2015-03-13 08:35:00,37,32.9487284095703,37,90,34.3447433042153,5,11,315,0,0,30.034,16,0,0,63.2,37
2015-03-13 08:40:00,37,32.1854115144625,37,90,34.3447433042153,6,12,22.5,0,0,30.034,17,0,0,63.2,36
2015-03-13 08:45:00,37.1,31.6429498976558,37.1,90,34.443520083915,7,13,292.5,0,0,30.032,19,0,0,63.2,36
2015-03-13 08:50:00,37.2,33.1836401728204,37.2,90,34.5422965836552,5,12,292.5,0,0,30.034,19,0,0,63.3,38
2015-03-13 08:55:00,37.3,31.8839797137043,37.3,90,34.6410728034371,7,12,22.5,0,0,30.038,22,0,0,63.3,38
2015-03-13 09:00:00,37.4,34.3152158578808,37.4,90,34.7398487432619,4,10,0,0,0,30.038,23,0.001,0,63.3,38
2015-03-13 09:05:00,37.6,34.5462481198119,37.6,90,34.9373997830447,4,11,337.5,0,0,30.038,28,0,0,63.3,38
2015-03-13 09:10:00,37.7,31.7871989126259,37.7,90,35.0361748830052,8,15,292.5,0,0,30.036,33,0,0,63.3,38
2015-03-13 09:15:00,37.7,32.3660393458013,37.7,90,35.0361748830052,7,15,22.5,0,0,30.038,36,0,0,63.3,38
2015-03-13 09:20:00,37.8,31.9089742043624,37.8,90,35.1349497030133,8,16,0,0,0,30.042,31,0,0,62.7,38
2015-03-13 09:25:00,37.8,31.9089742043624,37.8,90,35.1349497030133,8,13,0,0,0,30.038,35,0,0,62.7,39
2015-03-13 09:30:00,37.9,32.6070691618497,37.9,90,35.2337242430702,7,13,0,0,0,30.042,33,0,0,62.7,39
2015-03-13 09:35:00,38,34.1232872258206,38,90,35.3324985031772,5,12,0,0,0,30.043,35,0,0,63,39
2015-03-13 09:40:00,38,31.1636972716007,38,90,35.3324985031772,10,16,337.5,0,0,30.04,41,0,0,63,39
2015-03-13 09:45:00,38.2,32.9686138859225,38.2,90,35.5300461835458,7,13,337.5,0,0,30.042,50,0,0,63.2,40
2015-03-13 09:50:00,38.3,32.5178506630448,38.3,90,35.6288196038099,8,19,22.5,0,0,30.043,52,0,0,63.3,40
2015-03-13 09:55:00,38.4,33.209643701971,38.4,90,35.7275927441288,7,13,0,0,0,30.041,55,0,0.3,63.3,40
2015-03-13 10:00:00,38.5,33.3301586099952,38.5,90,35.8263656045037,7,16,0,0,0,30.044,50,0.001,0,63.5,40
2015-03-13 10:05:00,38.5,32.2495354370518,38.5,90,35.8263656045037,9,22,0,0,0,30.045,57,0,0.5,63.5,40
2015-03-13 10:10:00,38.5,32.7614012465177,38.5,90,35.8263656045037,8,16,22.5,0,0,30.045,58,0,0.7,63.5,39
2015-03-13 10:15:00,38.6,32.8831765382542,38.6,90,35.9251381849356,8,16,337.5,0,0,30.045,64,0,0.9,63.5,39
2015-03-13 10:20:00,38.6,33.4506735180195,38.6,90,35.9251381849356,7,14,0,0,0,30.047,63,0,0.9,63.6,40
2015-03-13 10:25:00,38.6,32.3724450390769,38.6,90,35.9251381849356,9,18,337.5,0,0,30.052,59,0,0.7,64,41
2015-03-13 10:30:00,38.7,33.5711884260437,38.7,90,36.023910485426,7,16,0,0,0,30.055,61,0,0.9,64.3,41
2015-03-13 10:35:00,38.7,32.495354641102,38.7,90,36.023910485426,9,18,0,0,0,30.054,71,0,0.9,64.6,40
2015-03-13 10:40:00,38.8,33.6917033340679,38.8,90,36.1226825059758,7,13,337.5,0,0,30.051,68,0,0.9,64.9,41
2015-03-13 10:45:00,38.8,34.3290854559962,38.8,90,36.1226825059758,6,16,337.5,0,0,30.051,72,0,0.9,65.3,41
2015-03-13 10:50:00,39,33.9327331501164,39,90,36.3202257072588,7,19,0,0,0,30.051,103,0,1,65.6,41
2015-03-13 10:55:00,39,33.3702777052001,39,90,36.3202257072588,8,15,22.5,0,0,30.051,119,0,1.2,65.9,40
2015-03-13 11:00:00,39.2,34.1737629661649,39.2,90,36.5177677887943,7,16,45,0,0,30.053,164,0.002,1.3,66.1,39
2015-03-13 11:05:00,39.5,34.5353076902377,39.5,90,36.8140788115915,7,13,0,0,0,30.057,218,0,1.5,66.4,40
2015-03-13 11:10:00,39.7,34.2227047473555,39.7,90,37.0116180937996,8,16,0,0,0,30.052,251,0,1.7,66.9,40
2015-03-13 11:15:00,39.9,34.4662553308285,39.9,89,36.9257446317207,8,18,45,0,0,30.053,231,0,1.7,67.2,40
2015-03-13 11:20:00,40.2,35.9963874105224,40.2,89,37.2216619509624,6,11,337.5,0,0,30.055,219,0,1.7,67.5,39
2015-03-13 11:25:00,40.5,37.0596842664463,40.5,89,37.5175764892034,5,11,0,0,0,30.058,179,0,1.4,67.9,39
2015-03-13 11:30:00,40.5,36.3536664007781,40.5,89,37.5175764892034,6,14,0,0,0,30.058,134,0,1.2,68.2,39
2015-03-13 11:35:00,40.3,34.9533564977744,40.3,89,37.3203004393742,8,14,0,0,0,30.058,109,0,1,68.4,38
2015-03-13 11:40:00,40.2,35.9963874105224,40.2,89,37.2216619509624,6,14,315,0,0,30.058,121,0,1,68.5,39
2015-03-13 11:45:00,40.3,34.9533564977744,40.3,89,37.3203004393742,8,14,22.5,0,0,30.063,109,0,0.9,68.9,39
2015-03-13 11:50:00,40.4,35.6199418624559,40.4,89,37.4189386187874,7,12,22.5,0,0,30.058,133,0,1.1,69,38
2015-03-13 11:55:00,40.6,35.8609716785043,40.6,89,37.6162140506238,7,11,337.5,0,0,30.061,196,0,1.4,69.2,38
2015-03-13 12:00:00,41.1,37.0682243812893,41.1,89,38.1093972228406,6,13,292.5,0,0,30.06,199,0.003,1.4,69.6,38
2015-03-13 12:05:00,41.3,37.306410374793,41.3,88,38.0186023056246,6,13,315,0,0,30.061,252,0,1.6,69.7,38
2015-03-13 12:10:00,41.5,37.5445963682968,41.5,88,38.2156104292254,6,15,337.5,0,0,30.06,220,0,1.5,70.1,38
2015-03-13 12:15:00,41.8,38.5866107275717,41.8,88,38.5111200776311,5,12,315,0,0,30.06,212,0,1.3,70.2,38
2015-03-13 12:20:00,41.7,36.6582105820851,41.7,88,38.4126171997596,8,15,22.5,0,0,30.059,212,0,1.4,70.6,37
2015-03-13 12:25:00,41.6,36.0597330998289,41.6,88,38.314113983625,9,16,337.5,0,0,30.06,142,0,1.1,70.6,37
2015-03-13 12:30:00,41.9,38.7040666091967,41.9,88,38.6096226172411,5,11,22.5,0,0,30.059,175,0,1.3,70.7,36
2015-03-13 12:35:00,42,37.5481803908438,42,88,38.7081248185915,7,13,315,0,0,30.059,218,0,1.5,70.7,36
2015-03-13 12:40:00,42.6,39.5262577805719,42.6,88,39.299130923338,5,11,0,0,0,30.058,355,0,2,70.9,36
2015-03-13 12:45:00,42.9,39.211898322823,42.9,87,39.3015427374282,6,13,0,0,0,30.061,294,0,1.9,71.1,35
2015-03-13 12:50:00,43,38.7533294710862,43,87,39.3999089948831,7,11,315,0,0,30.062,269,0,1.7,71.2,35
2015-03-13 12:55:00,43.1,39.4500843163268,43.1,86,39.2019333032215,6,13,337.5,0,0,30.057,269,0,1.8,71.4,35
2015-03-13 13:00:00,43.1,39.4500843163268,43.1,86,39.2019333032215,6,9,22.5,0,0,30.059,220,0.004,1.5,71.4,35
2015-03-13 13:05:00,43.3,39.6882703098305,43.3,86,39.3983961871779,6,13,0,0,0,30.061,188,0,1.4,71.4,35
2015-03-13 13:10:00,43.3,40.3484489519471,43.3,86,39.3983961871779,5,11,45,0,0,30.063,167,0,1.2,71.6,35
2015-03-13 13:15:00,43.4,39.8073633065824,43.4,86,39.4966270329883,6,11,0,0,0,30.061,191,0,1.3,71.6,34
2015-03-13 13:20:00,43.5,39.9264563033343,43.5,86,39.5948574813568,6,9,315,0,0,30.062,200,0,1.4,71.6,34
2015-03-13 13:25:00,43.4,39.2353891031832,43.4,86,39.4966270329883,7,13,315,0,0,30.061,211,0,1.4,71.6,34
2015-03-13 13:30:00,43.4,38.7283905416053,43.4,86,39.4966270329883,8,14,337.5,0,0,30.059,263,0,1.6,71.8,35
2015-03-13 13:35:00,43.4,39.8073633065824,43.4,86,39.4966270329883,6,11,337.5,0,0,30.059,298,0,1.6,71.9,35
2015-03-13 13:40:00,43.7,40.8182724784472,43.7,86,39.7913171857774,5,10,0,0,0,30.06,239,0,1.5,72.1,35
2015-03-13 13:45:00,44,41.1706401233223,44,86,40.0860037616537,5,10,22.5,0,0,30.061,341,0,1.8,72.1,36
2015-03-13 13:50:00,44.1,40.0789934593529,44.1,86,40.1842318254209,7,12,22.5,0,0,30.063,342,0,1.8,72.3,36
2015-03-13 13:55:00,44.4,40.9982932741011,44.4,85,40.1777567069786,6,10,337.5,0,0,30.063,266,0,1.4,72.3,36
2015-03-13 14:00:00,44.4,40.9982932741011,44.4,85,40.1777567069786,6,11,337.5,0,0,30.06,232,0.005,1.5,72.4,36
2015-03-13 14:05:00,44.6,41.2364792676049,44.6,85,40.3739381110208,6,12,337.5,0,0,30.06,452,0,1.8,72.6,36
2015-03-13 14:10:00,45.2,42.5801107028226,45.2,85,40.9624720669517,5,10,22.5,0,0,30.064,312,0,1.4,72.8,36
2015-03-13 14:15:00,45.1,41.2841425395953,45.1,84,40.5591271981079,7,12,0,0,0,30.064,270,0,1.4,72.8,36
2015-03-13 14:20:00,45,42.3451989395726,45,84,40.4611759046562,5,10,45,0,0,30.065,215,0,1.2,73,36
2015-03-13 14:25:00,45.1,41.8319442513643,45.1,84,40.5591271981079,6,12,45,0,0,30.066,212,0,1.2,73.1,37
2015-03-13 14:30:00,45,42.3451989395726,45,84,40.4611759046562,5,10,337.5,0,0,30.066,203,0,1.1,73.1,37
2015-03-13 14:35:00,45.3,42.070130244868,45.3,84,40.7550284125492,6,12,337.5,0,0,30.064,209,0,0.9,73.3,37
2015-03-13 14:40:00,45.4,42.8150224660727,45.4,84,40.8529783335453,5,8,22.5,0,0,30.066,149,0,0.8,73.5,37
2015-03-13 14:45:00,45.6,45.6,45.6,84,41.0488768031043,3,8,0,0,0,30.064,172,0,0.9,73.5,38
2015-03-13 14:50:00,45.7,42.5465022318755,45.7,84,41.1468253516736,6,10,315,0,0,30.064,253,0,1,73.8,38
2015-03-13 14:55:00,46,42.9037812221311,46,83,41.1309425352573,6,10,292.5,0,0,30.061,239,0,1.1,74,38
2015-03-13 15:00:00,45.9,42.7846882253793,45.9,83,41.0331340399785,6,10,0,0,0,30.058,274,0.005,1.2,74,37
2015-03-13 15:05:00,46.1,43.022874218883,46.1,83,41.2287505426919,6,12,0,0,0,30.061,304,0,1.1,74.2,37
2015-03-13 15:10:00,46.3,43.2610602123867,46.3,83,41.4243650940437,6,11,22.5,0,0,30.062,218,0,1,74.3,36
2015-03-13 15:15:00,46.3,43.2610602123867,46.3,83,41.4243650940437,6,10,337.5,0,0,30.066,162,0,0.9,74.3,36
2015-03-13 15:20:00,46.4,43.9895812823229,46.4,83,41.5221716379681,5,9,337.5,0,0,30.067,168,0,0.8,74.5,36
2015-03-13 15:25:00,46.4,43.3801532091386,46.4,83,41.5221716379681,6,10,0,0,0,30.068,128,0,0.7,74.5,36
2015-03-13 15:30:00,46.4,43.9895812823229,46.4,83,41.5221716379681,5,10,22.5,0,0,30.07,144,0,0.7,74.7,37
2015-03-13 15:35:00,46.4,44.7116676447798,46.4,83,41.5221716379681,4,10,22.5,0,0,30.071,185,0,0.7,74.7,37
2015-03-13 15:40:00,46.3,43.2610602123867,46.3,83,41.4243650940437,6,11,315,0,0,30.076,222,0,0.7,74.9,36
2015-03-13 15:45:00,46.5,44.8271837757453,46.5,83,41.6199776940631,4,9,315,0,0,30.075,157,0,0.6,74.9,36
2015-03-13 15:50:00,46.7,46.7,46.7,83,41.8155883427793,3,8,45,0,0,30.077,174,0,0.7,75,35
2015-03-13 15:55:00,46.4,43.3801532091386,46.4,83,41.5221716379681,6,12,22.5,0,0,30.079,161,0,0.6,75,35
2015-03-13 16:00:00,46.2,42.609806527862,46.2,83,41.3265580622862,7,13,337.5,0,0,30.076,171,0.004,0.6,75.2,35
2015-03-13 16:05:00,46.3,43.8721254006979,46.3,83,41.4243650940437,5,11,337.5,0,0,30.078,171,0,0.5,75.2,34
2015-03-13 16:10:00,46.3,43.2610602123867,46.3,83,41.4243650940437,6,11,0,0,0,30.079,180,0,0.4,75.2,34
2015-03-13 16:15:00,46.3,43.2610602123867,46.3,83,41.4243650940437,6,12,22.5,0,0,30.08,183,0,0.4,75.2,34
2015-03-13 16:20:00,46.5,44.107037163948,46.5,83,41.6199776940631,5,10,22.5,0,0,30.081,174,0,0.2,75.2,34
2015-03-13 16:25:00,46.4,43.3801532091386,46.4,83,41.5221716379681,6,10,0,0,0,30.078,160,0,0.3,75.4,34
2015-03-13 16:30:00,46.4,43.3801532091386,46.4,83,41.5221716379681,6,14,337.5,0,0,30.082,154,0,0.2,75.4,34
2015-03-13 16:35:00,46.3,42.7303214358863,46.3,83,41.4243650940437,7,14,22.5,0,0,30.081,148,0,0.1,75.6,34
2015-03-13 16:40:00,46.3,43.2610602123867,46.3,83,41.4243650940437,6,13,0,0,0,30.079,134,0,0.3,75.6,34
2015-03-13 16:45:00,46.3,43.2610602123867,46.3,83,41.4243650940437,6,10,0,0,0,30.083,126,0,0.2,75.6,34
2015-03-13 16:50:00,46.4,43.3801532091386,46.4,83,41.5221716379681,6,11,292.5,0,0,30.085,113,0,0,75.7,34
2015-03-13 16:55:00,46.4,43.9895812823229,46.4,83,41.5221716379681,5,10,315,0,0,30.087,98,0,0,75.7,34
2015-03-13 17:00:00,46.3,44.5961515138142,46.3,83,41.4243650940437,4,8,337.5,0,0,30.089,76,0.003,0,75.7,34
2015-03-13 17:05:00,46.3,43.2610602123867,46.3,83,41.4243650940437,6,11,22.5,0,0,30.093,63,0,0,75.7,34
2015-03-13 17:10:00,46.1,44.3651192518831,46.1,83,41.2287505426919,4,8,315,0,0,30.095,54,0,0,75.9,34
2015-03-13 17:15:00,46,42.3687767118135,46,83,41.1309425352573,7,13,0,0,0,30.097,41,0,0,75.9,34
2015-03-13 17:20:00,45.9,42.2482618037893,45.9,83,41.0331340399785,7,12,0,0,0,30.1,36,0,0,75.9,34
2015-03-13 17:25:00,45.8,42.1277468957651,45.8,83,40.9353250568521,7,12,0,0,0,30.101,27,0,0,75.9,34
2015-03-13 17:30:00,45.6,43.0499342293227,45.6,83,40.7397056270415,5,10,0,0,0,30.104,23,0,0,75.9,34
2015-03-13 17:35:00,45.6,43.7875385970554,45.6,84,41.0488768031043,4,11,0,0,0,30.105,20,0,0,75.7,34
2015-03-13 17:40:00,45.6,43.7875385970554,45.6,84,41.0488768031043,4,9,22.5,0,0,30.107,18,0,0,75.7,34
2015-03-13 17:45:00,45.6,43.7875385970554,45.6,84,41.0488768031043,4,7,22.5,0,0,30.107,13,0,0,75.7,34
2015-03-13 17:50:00,45.4,42.8150224660727,45.4,84,40.8529783335453,5,11,45,0,0,30.108,10,0,0,75.6,33
2015-03-13 17:55:00,45.2,41.9510372481161,45.2,83,40.3484609130874,6,13,0,0,0,30.114,8,0,0,75.4,33
2015-03-13 18:00:00,45,41.7128512546124,45,83,40.1528356288854,6,9,22.5,0,0,30.116,6,0.001,0,75.4,33
2015-03-13 18:05:00,44.8,44.8,44.8,83,39.9572083931612,3,8,45,0,0,30.121,1,0,0,75.2,33
2015-03-13 18:10:00,44.6,42.6323772874,44.6,83,39.7615792058856,4,11,67.5,0,0,30.125,0,0,0,75,33
2015-03-13 18:15:00,44.4,44.4,44.4,83,39.5659480670294,3,7,45,0,0,30.127,0,0,0,74.9,33
2015-03-13 18:20:00,44.3,44.3,44.3,83,39.4681317657495,2,7,22.5,0,0,30.13,0,0,0,74.7,33
2015-03-13 18:25:00,44.2,44.2,44.2,83,39.3703149765634,3,7,337.5,0,0,30.134,0,0,0,74.7,33
2015-03-13 18:30:00,44.1,44.1,44.1,83,39.2724976994676,2,8,45,0,0,30.136,0,0,0,74.5,33
2015-03-13 18:35:00,44,44,44,83,39.1746799344584,3,9,45,0,0,30.133,0,0,0,74.5,33
2015-03-13 18:40:00,43.9,43.9,43.9,83,39.0768616815321,3,9,45,0,0,30.137,0,0,0,74.3,33
2015-03-13 18:45:00,43.7,43.7,43.7,83,38.8812237119138,3,9,22.5,0,0,30.139,0,0,0,74.3,33
2015-03-13 18:50:00,43.5,40.5833607151971,43.5,83,38.6855837905834,5,12,0,0,0,30.144,0,0,0,74.2,33
2015-03-13 18:55:00,43.4,43.4,43.4,83,38.587763098017,2,8,67.5,0,0,30.147,0,0,0,74.2,33
2015-03-13 19:00:00,43.1,40.8996353229168,43.1,83,38.2942980926697,4,9,0,0,0,30.15,0,0,0,74.2,33
2015-03-13 19:05:00,42.9,42.9,42.9,83,38.098652316028,3,8,45,0,0,30.152,0,0,0,74,33
2015-03-13 19:10:00,42.8,42.8,42.8,83,38.0008286957732,1,7,90,0,0,30.153,0,0,0,74,33
2015-03-13 19:15:00,42.7,42.7,42.7,83,37.9030045875574,3,9,67.5,0,0,30.155,0,0,0,74,33
2015-03-13 19:20:00,42.5,40.2065385371235,42.5,83,37.7073549072288,4,10,45,0,0,30.159,0,0,0,74,33